CST,Max TemperatureF,Mean TemperatureF,Min TemperatureF,Max Dew PointF,MeanDew PointF,Min DewpointF,Max Humidity, Mean Humidity, Min Humidity, Max Sea Level PressureIn, Mean Sea Level PressureIn, Min Sea Level PressureIn, Max VisibilityMiles, Mean VisibilityMiles, Min VisibilityMiles, Max Wind SpeedMPH, Mean Wind SpeedMPH, Max Gust SpeedMPH,PrecipitationIn, CloudCover, Events, WindDirDegrees
2012-11-1,39,32,26,39,28,25,100,88,75,30.16,30.11,30.05,10,10,10,23,16,28,0.00,6,,8
2012-11-2,35,30,26,34,30,27,100,93,75,30.18,30.15,30.11,10,10,4,8,3,,0.00,4,Rain,48
2012-11-3,39,36,32,37,34,30,100,95,70,30.23,30.19,30.16,10,9,5,7,3,,0.00,7,Rain,88
2012-11-4,41,36,30,37,34,30,100,93,76,30.23,30.20,30.16,10,8,1,6,2,,0.00,8,,48
2012-11-5,44,38,33,37,36,34,100,91,71,30.23,30.07,29.76,10,9,3,16,5,22,0.05,6,Rain,204
2012-11-6,44,40,35,41,38,36,100,91,81,30.03,29.88,29.74,10,10,5,30,14,38,0.00,7,,317
2012-11-7,46,37,28,39,36,28,100,87,66,30.09,29.99,29.82,10,10,10,24,7,31,0.00,1,,184
2012-11-8,42,38,33,39,36,34,100,89,76,30.14,29.97,29.80,10,10,7,23,15,29,0.00,5,,4
2012-11-9,39,36,32,37,33,30,100,90,87,30.15,30.06,29.90,10,10,7,22,15,28,0.00,8,,64
2012-11-10,41,37,32,39,38,32,100,100,87,29.89,29.64,29.48,10,4,2,23,10,26,0.03,8,Rain,66
2012-11-11,32,26,19,32,20,16,100,90,80,29.85,29.77,29.56,10,9,2,25,18,32,0.00,8,Snow,281
2012-11-12,23,19,15,19,15,10,100,88,79,30.21,30.05,29.85,10,8,2,23,14,28,0.00,6,Snow,282
2012-11-13,33,24,15,32,23,12,100,92,81,30.24,30.22,30.20,10,10,7,9,5,,0.00,2,,179
2012-11-14,46,34,21,39,30,21,100,93,71,30.22,30.14,30.05,10,8,0,13,3,,0.00,3,Fog,186
2012-11-15,35,28,21,36,26,19,100,86,64,30.48,30.33,30.06,10,10,10,18,7,21,0.00,1,,339
2012-11-16,42,32,21,28,18,9,100,63,25,30.48,30.28,30.07,10,10,10,25,12,31,0.00,0,,165
2012-11-17,51,43,35,39,36,30,93,80,58,30.10,30.06,30.01,10,10,10,15,10,18,0.00,0,,157
2012-11-18,53,43,33,39,38,34,100,78,58,30.00,29.96,29.91,10,10,10,20,10,28,0.00,0,,165
2012-11-19,48,36,24,39,35,25,100,86,66,30.16,30.03,29.90,10,9,4,16,9,20,0.00,0,,292
2012-11-20,51,35,19,37,28,19,100,79,37,30.16,30.04,29.90,10,6,0,16,5,22,0.00,2,Fog-Rain,167
2012-11-21,60,46,33,37,34,30,100,72,31,29.90,29.76,29.54,10,10,5,15,7,16,0.00,0,,168
2012-11-22,42,28,15,37,28,14,100,97,81,30.26,29.87,29.53,10,6,0,30,14,34,0.00,7,Rain-Snow,326
2012-11-23,17,12,6,16,12,7,100,87,79,30.49,30.42,30.27,10,6,1,29,18,36,0.00,8,Snow,337
2012-11-24,30,18,6,28,17,7,100,92,80,30.36,30.00,29.79,10,9,4,21,8,28,0.00,5,Snow,172
2012-11-25,30,19,6,27,18,5,93,87,73,30.30,30.05,29.90,10,10,5,22,14,26,0.00,7,Rain,333
2012-11-26,21,12,3,14,7,1,92,78,58,30.45,30.34,30.20,10,10,5,13,7,16,0.00,2,,242
2012-11-27,26,22,17,27,20,12,100,88,74,30.27,30.16,30.10,10,10,10,10,6,,0.00,6,,190
2012-11-28,37,28,19,30,25,19,100,90,70,30.29,30.16,30.03,10,9,5,17,5,21,0.00,3,,182
2012-11-29,32,24,17,27,21,16,100,94,75,30.18,30.13,30.10,10,10,7,18,12,22,0.00,7,,38
2012-11-30,35,29,23,36,29,23,100,98,93,30.16,30.06,29.83,10,6,3,21,6,28,0.00,8,,159